Regional Weather Roundup
Issued by NWS

Home | Current Version | Previous Version | Graphics & Text | Print | Product List | Glossary On
Versions: 1 2 3 4 5 6 7 8 9 10 11 12 13 14 15 16 17 18 19 20 21 22 23 24 25 26 27 28 29 30 31 32 33 34 35 36 37 38 39 40 41 42 43 44 45 46 47 48 49 50
000
ASUS43 KOAX 270602
RWRNE

WEATHER ROUNDUP FOR NEBRASKA
NATIONAL WEATHER SERVICE OMAHA NE
1200 AM CST TUE JAN 27 2015

NOTES: SATELLITE DATA IS BEING USED TO AUGMENT CLOUD COVER ABOVE
       12000 FEET.
       "FAIR" INDICATES FEW OR NO CLOUDS BELOW 12,000 FEET WITH NO
       SIGNIFICANT WEATHER AND/OR OBSTRUCTIONS TO VISIBILITY.

  * THESE STATIONS DO NOT REPORT WEATHER SUCH AS RAIN...SNOW OR FOG.

NEZ001>004-019>022-054>056-270700-
NEBRASKA PANHANDLE

CITY           SKY/WX    TMP DP  RH WIND       PRES   REMARKS
SCOTTSBLUFF    CLEAR     38  29  70 NW7       30.11S WCI  33
6HR MIN TEMP:  38; 6HR MAX TEMP:  53;

ALLIANCE       CLEAR     30  26  85 W7        30.08S WCI  23
6HR MIN TEMP:  29; 6HR MAX TEMP:  48;

CHADRON        CLEAR     36  29  75 SW9       30.05R WCI  29
6HR MIN TEMP:  34; 6HR MAX TEMP:  54;

SIDNEY         CLEAR     37  27  67 W13       30.14S WCI  29
6HR MIN TEMP:  36; 6HR MAX TEMP:  50;

$$

NEZ057>060-069>072-079>082-270700-
SOUTHWEST NEBRASKA

CITY           SKY/WX    TMP DP  RH WIND       PRES   REMARKS
NORTH PLATTE   CLEAR     28  24  85 W3        30.08S
6HR MIN TEMP:  26; 6HR MAX TEMP:  51;

IMPERIAL       CLEAR     40  29  64 W12       30.10S WCI  33
6HR MIN TEMP:  40; 6HR MAX TEMP:  60;

LEXINGTON      CLEAR     30  26  83 N3        30.09R
MCCOOK         CLEAR     37  28  70 W10       30.09R WCI  30
6HR MIN TEMP:  36; 6HR MAX TEMP:  62;

$$

NEZ005>010-023>029-035>040-094-270700-
NORTH CENTRAL NEBRASKA

CITY           SKY/WX    TMP DP  RH WIND       PRES   REMARKS
VALENTINE      CLEAR     31  27  85 CALM      30.03R
6HR MIN TEMP:  31; 6HR MAX TEMP:  50;

BROKEN BOW     CLEAR     30  25  81 CALM      30.07R
6HR MIN TEMP:  29; 6HR MAX TEMP:  52;

ORD            CLEAR     27  24  89 SW3       30.05S
6HR MIN TEMP:  27; 6HR MAX TEMP:  45;

$$

NEZ041-046>049-061>064-073>077-083>087-270700-
SOUTH CENTRAL NEBRASKA

CITY           SKY/WX    TMP DP  RH WIND       PRES   REMARKS
GRAND ISLAND   CLEAR     31  27  85 SW3       30.07R
6HR MIN TEMP:  30; 6HR MAX TEMP:  47;

AURORA         PTCLDY    33  28  84 W8        30.07R WCI  25
HASTINGS       CLEAR     33  26  75 W3        30.07R
6HR MIN TEMP:  33; 6HR MAX TEMP:  51;

KEARNEY *      CLEAR     34  27  75 NW6       30.08R WCI  29
$$

NEZ011>018-030>034-042>045-270700-
NORTHEAST NEBRASKA

CITY           SKY/WX    TMP DP  RH WIND       PRES   REMARKS
NORFOLK        CLEAR     35  30  82 CALM      30.05R
6HR MIN TEMP:  30; 6HR MAX TEMP:  49;

ALBION         CLEAR     30  25  82 NW3       30.06S
COLUMBUS *     CLEAR     30  21  69 CALM      30.08R
FREMONT        CLEAR     33  29  87 W3        30.06R
TEKAMAH        CLEAR     34  30  85 NW8       30.06R WCI  27
6HR MIN TEMP:  33; 6HR MAX TEMP:  46;

$$

NEZ050>053-065>068-078-088>093-270700-
SOUTHEAST NEBRASKA

CITY           SKY/WX    TMP DP  RH WIND       PRES   REMARKS
LINCOLN        CLEAR     32  25  75 CALM      30.07R
6HR MIN TEMP:  28; 6HR MAX TEMP:  54;

OMAHA EPPLEY   CLEAR     34  30  85 NW5       30.05R WCI  30
6HR MIN TEMP:  34; 6HR MAX TEMP:  48;

FALLS CITY     CLEAR     36  28  73 NW7       30.04R WCI  30
6HR MIN TEMP:  34; 6HR MAX TEMP:  50;

$$

NEZ044-045-051>053-067-270700-
OMAHA AREA

CITY           SKY/WX    TMP DP  RH WIND       PRES   REMARKS
OMAHA EPPLEY   CLEAR     34  30  85 NW5       30.05R WCI  30
6HR MIN TEMP:  34; 6HR MAX TEMP:  48;

FREMONT        CLEAR     33  29  87 W3        30.06R
$$



USA.gov is the U.S. government's official web portal to all federal, state and local government web resources and services.